CW6641 Weather Reports


Display with metric or nautical units.
time (UTC)temp
F
wind
direction
speed
MPH
gust
MPH
rain 1hr
in
rain 24hr
in
rain mn
in
humidity
%
barometer
mb
20260510001703 75 0.0 0.0 0.00 0.02 0.02 46 1009.6
20260510001201 75 0.0 0.0 0.00 0.02 0.02 46 1009.4
20260510000656 76 0.0 0.0 0.00 0.02 0.02 46 1009.3
20260510000154 76 0.0 0.0 0.00 0.02 0.02 46 1009.3
20260509235651 76 0.0 0.0 0.00 0.02 0.02 46 1009.2
20260509235147 76 0.0 0.0 0.00 0.02 0.02 45 1009.3
20260509234643 76 0.0 0.0 0.00 0.02 0.02 44 1009.4
20260509234140 76 0.0 0.0 0.00 0.02 0.02 44 1009.2
20260509233638 76 0.0 0.0 0.00 0.02 0.02 45 1009.5
20260509233135 77 0.0 0.0 0.00 0.02 0.02 44 1009.3
20260509232631 77 0.0 0.0 0.00 0.02 0.02 43 1009.3
20260509232128 77 0.0 0.0 0.00 0.02 0.02 43 1009.3
20260509231625 77 0.0 0.0 0.00 0.02 0.02 42 1009.0
20260509231123 77 0.0 0.0 0.00 0.02 0.02 42 1009.2
20260509230619 77 0.0 0.0 0.00 0.02 0.02 41 1009.2
20260509230117 77 0.0 0.0 0.00 0.02 0.02 41 1009.2
20260509225612 77 0.0 0.0 0.00 0.02 0.02 40 1008.9
20260509225108 77 0.0 0.0 0.00 0.02 0.02 41 1009.1
20260509224603 77 0.0 0.0 0.00 0.02 0.02 39 1009.2
20260509224101 77 0.0 0.0 0.00 0.02 0.02 40 1008.9
20260509223557 77 0.0 0.0 0.00 0.02 0.02 40 1008.9
20260509223055 77 0.0 0.0 0.00 0.02 0.02 40 1009.0
20260509222551 77 0.0 0.0 0.00 0.02 0.02 39 1009.0
20260509222047 77 0.0 0.0 0.00 0.02 0.02 41 1009.1
20260509221543 77 0.0 0.0 0.00 0.02 0.02 40 1009.1
20260509221039 77 0.0 0.0 0.00 0.02 0.02 38 1009.0
20260509220535 77 0.0 0.0 0.00 0.02 0.02 35 1008.9
20260509220032 77 0.0 0.0 0.00 0.02 0.02 40 1008.9
20260509215527 77 0.0 0.0 0.00 0.02 0.02 39 1008.8
20260509215024 77 0.0 0.0 0.00 0.02 0.02 37 1009.0
20260509214521 77 0.0 0.0 0.00 0.02 0.02 39 1009.0
20260509214018 77 0.0 0.0 0.00 0.02 0.02 39 1009.0
20260509213514 77 0.0 0.0 0.00 0.02 0.02 38 1008.9
20260509213011 78 0.0 0.0 0.00 0.02 0.02 37 1008.9
20260509212508 78 0.0 0.0 0.00 0.02 0.02 39 1009.0
20260509212005 77 0.0 0.0 0.00 0.02 0.02 37 1009.2
20260509211500 77 0.0 0.0 0.00 0.02 0.02 36 1009.1
20260509210957 77 0.0 0.0 0.00 0.02 0.02 37 1009.1
20260509210454 77 0.0 0.0 0.00 0.02 0.02 39 1009.1
20260509205950 77 0.0 0.0 0.00 0.02 0.02 44 1009.3
20260509205445 77 0.0 0.0 0.00 0.02 0.02 45 1009.3
20260509204941 77 0.0 0.0 0.00 0.02 0.02 43 1009.2
20260509204437 77 0.0 0.0 0.00 0.02 0.02 45 1009.3
20260509203934 77 0.0 0.0 0.00 0.02 0.02 45 1009.2
20260509203429 78 0.0 0.0 0.00 0.02 0.02 45 1009.4
20260509202927 78 0.0 0.0 0.00 0.02 0.02 46 1009.5
20260509202423 78 0.0 0.0 0.00 0.02 0.02 41 1009.6
20260509201919 78 0.0 0.0 0.00 0.02 0.02 47 1009.6
20260509201414 77 0.0 0.0 0.00 0.02 0.02 48 1009.5
20260509200911 77 0.0 0.0 0.00 0.02 0.02 50 1009.6
20260509200411 77 0.0 0.0 0.00 0.02 0.02 49 1009.8
20260509195908 76 0.0 0.0 0.00 0.02 0.02 50 1009.7
20260509195403 76 0.0 0.0 0.00 0.02 0.02 51 1009.8
20260509194903 76 0.0 0.0 0.00 0.02 0.02 53 1009.7
20260509194359 76 0.0 0.0 0.00 0.02 0.02 52 1009.8
20260509193856 76 0.0 0.0 0.00 0.02 0.02 52 1009.7
20260509193356 76 0.0 0.0 0.00 0.02 0.02 52 1009.8
20260509192852 76 0.0 0.0 0.00 0.02 0.02 55 1010.0
20260509192348 75 0.0 0.0 0.00 0.02 0.02 55 1010.0
20260509191844 75 0.0 0.0 0.00 0.02 0.02 56 1009.8
20260509191339 75 0.0 0.0 0.00 0.02 0.02 55 1009.8
20260509190836 74 0.0 0.0 0.00 0.02 0.02 55 1010.0
20260509190333 74 0.0 0.0 0.00 0.02 0.02 57 1010.1
20260509185830 74 0.0 0.0 0.00 0.02 0.02 57 1010.2
20260509185327 74 0.0 0.0 0.00 0.02 0.02 56 1010.2
20260509184824 73 0.0 0.0 0.00 0.02 0.02 58 1010.2
20260509184321 72 0.0 0.0 0.00 0.02 0.02 57 1010.1
20260509183818 72 0.0 0.0 0.00 0.02 0.02 59 1010.3
20260509183312 72 0.0 0.0 0.00 0.02 0.02 58 1010.2
20260509182809 71 0.0 0.0 0.00 0.02 0.02 59 1010.1
20260509182307 71 0.0 0.0 0.00 0.02 0.02 60 1010.1
20260509181803 71 0.0 0.0 0.00 0.02 0.02 57 1010.2
20260509181301 71 0.0 0.0 0.00 0.02 0.02 57 1010.4
20260509180758 71 0.0 0.0 0.00 0.02 0.02 61 1010.2
20260509180254 71 0.0 0.0 0.00 0.02 0.02 59 1010.2
20260509175750 71 0.0 0.0 0.00 0.02 0.02 60 1010.1
20260509175247 70 0.0 0.0 0.00 0.02 0.02 61 1010.3
20260509174743 70 0.0 0.0 0.00 0.02 0.02 61 1010.3
20260509174238 70 0.0 0.0 0.00 0.02 0.02 62 1010.4
20260509173735 70 0.0 0.0 0.00 0.02 0.02 63 1010.7
20260509173230 70 0.0 0.0 0.00 0.02 0.02 63 1010.4
20260509172727 69 0.0 0.0 0.00 0.02 0.02 65 1010.5
20260509172223 69 0.0 0.0 0.00 0.02 0.02 64 1010.5
20260509171718 69 0.0 0.0 0.00 0.02 0.02 64 1010.5
20260509171215 69 0.0 0.0 0.00 0.02 0.02 66 1010.8
20260509170712 69 0.0 0.0 0.00 0.02 0.02 66 1010.6
20260509170208 68 0.0 0.0 0.00 0.02 0.02 66 1010.5
20260509165707 68 0.0 0.0 0.00 0.02 0.02 66 1010.8
20260509165202 68 0.0 0.0 0.00 0.02 0.02 66 1010.2
20260509164658 68 0.0 0.0 0.00 0.02 0.02 66 1010.7
20260509164154 68 0.0 0.0 0.00 0.02 0.02 67 1010.7
20260509163652 68 0.0 0.0 0.00 0.02 0.02 67 1010.7
20260509163148 68 0.0 0.0 0.00 0.02 0.02 66 1010.8
20260509162645 68 0.0 0.0 0.00 0.02 0.02 69 1010.8
20260509162141 68 0.0 0.0 0.00 0.02 0.02 67 1010.8
20260509161637 67 0.0 0.0 0.00 0.02 0.02 69 1010.7
20260509161132 67 0.0 0.0 0.00 0.02 0.02 69 1010.6
20260509160628 67 0.0 0.0 0.00 0.02 0.02 69 1010.8
20260509160124 67 0.0 0.0 0.00 0.02 0.02 68 1010.7
20260509155620 66 0.0 0.0 0.00 0.02 0.02 69 1010.5
20260509155116 67 0.0 0.0 0.00 0.02 0.02 68 1010.4
20260509154612 66 0.0 0.0 0.00 0.02 0.02 70 1010.4
20260509154110 66 0.0 0.0 0.00 0.02 0.02 69 1010.1
20260509153607 66 0.0 0.0 0.00 0.02 0.02 70 1010.2
20260509153104 66 0.0 0.0 0.00 0.02 0.02 70 1010.2
20260509152559 66 0.0 0.0 0.00 0.02 0.02 70 1010.1
20260509152057 66 0.0 0.0 0.00 0.02 0.02 71 1009.9
20260509151553 65 0.0 0.0 0.00 0.02 0.02 70 1009.9
20260509151051 65 0.0 0.0 0.00 0.02 0.02 72 1010.0
20260509150548 64 0.0 0.0 0.00 0.02 0.02 72 1009.8
20260509150047 64 0.0 0.0 0.00 0.02 0.02 71 1009.8
20260509145542 64 0.0 0.0 0.00 0.02 0.02 73 1010.1
20260509145037 64 0.0 0.0 0.00 0.02 0.02 75 1010.0
20260509144534 64 0.0 0.0 0.00 0.02 0.02 75 1009.9
20260509144032 63 0.0 0.0 0.00 0.02 0.02 75 1009.8
20260509143528 63 0.0 0.0 0.00 0.02 0.02 76 1009.9
20260509143026 63 0.0 0.0 0.00 0.02 0.02 76 1009.8
20260509142521 62 0.0 0.0 0.00 0.02 0.02 78 1009.7
20260509142017 62 0.0 0.0 0.00 0.02 0.02 77 1009.8
20260509141514 62 0.0 0.0 0.00 0.02 0.02 79 1009.6
20260509141011 62 0.0 0.0 0.00 0.02 0.02 80 1009.8
20260509140507 61 0.0 0.0 0.00 0.02 0.02 80 1009.8
20260509140006 61 0.0 0.0 0.00 0.02 0.02 80 1009.9
20260509135502 61 0.0 0.0 0.00 0.02 0.02 80 1009.7
20260509135000 60 0.0 0.0 0.00 0.02 0.02 80 1009.9
20260509134457 60 0.0 0.0 0.00 0.02 0.02 81 1009.6
20260509133955 60 0.0 0.0 0.00 0.02 0.02 82 1009.6
20260509133451 60 0.0 0.0 0.00 0.02 0.02 83 1009.7
20260509132949 59 0.0 0.0 0.00 0.02 0.02 84 1009.7
20260509132447 59 0.0 0.0 0.00 0.02 0.02 84 1009.8
20260509131944 59 0.0 0.0 0.00 0.02 0.02 84 1009.7
20260509131441 59 0.0 0.0 0.00 0.02 0.02 85 1009.6
20260509130937 58 0.0 0.0 0.00 0.02 0.02 85 1009.5
20260509130433 58 0.0 0.0 0.00 0.02 0.02 85 1009.6
20260509125930 58 0.0 0.0 0.00 0.02 0.02 85 1009.5
20260509125427 58 0.0 0.0 0.00 0.02 0.02 85 1009.4
20260509124923 58 0.0 0.0 0.00 0.02 0.02 85 1009.5
20260509124420 58 0.0 0.0 0.00 0.02 0.02 85 1009.6
20260509123917 58 0.0 0.0 0.00 0.02 0.02 85 1009.7
20260509123414 58 0.0 0.0 0.00 0.02 0.02 85 1009.3
20260509122910 58 0.0 0.0 0.00 0.02 0.02 85 1009.4
20260509122407 57 0.0 0.0 0.00 0.02 0.02 85 1009.4
20260509121904 57 0.0 0.0 0.00 0.02 0.02 85 1009.3
20260509121401 57 0.0 0.0 0.00 0.02 0.02 85 1009.4
20260509120859 57 0.0 0.0 0.00 0.02 0.02 85 1009.3
20260509120356 57 0.0 0.0 0.00 0.02 0.02 85 1009.2
20260509115854 57 0.0 0.0 0.00 0.02 0.02 85 1009.1
20260509115351 57 0.0 0.0 0.00 0.02 0.02 85 1009.0
20260509114849 56 0.0 0.0 0.00 0.02 0.02 84 1009.1
20260509114348 56 0.0 0.0 0.00 0.02 0.02 84 1009.0
20260509113847 56 0.0 0.0 0.00 0.02 0.02 84 1008.9
20260509113343 56 0.0 0.0 0.00 0.02 0.02 84 1008.9
20260509112840 56 0.0 0.0 0.00 0.02 0.02 84 1008.9
20260509112337 56 0.0 0.0 0.00 0.02 0.02 84 1009.0
20260509111834 56 0.0 0.0 0.00 0.02 0.02 84 1009.1
20260509111331 56 0.0 0.0 0.00 0.02 0.02 84 1008.6
20260509110829 56 0.0 0.0 0.00 0.02 0.02 84 1008.6
20260509110325 57 0.0 0.0 0.00 0.02 0.02 84 1008.3
20260509105823 57 0.0 0.0 0.00 0.02 0.02 84 1008.2
20260509105321 57 0.0 0.0 0.00 0.02 0.02 84 1008.3
20260509104817 57 0.0 0.0 0.00 0.02 0.02 84 1008.0
20260509104314 57 0.0 0.0 0.00 0.02 0.02 84 1007.7
20260509103812 57 0.0 0.0 0.00 0.02 0.02 84 1007.9
20260509103309 57 0.0 0.0 0.00 0.02 0.02 83 1007.8
20260509102808 57 0.0 0.0 0.00 0.02 0.02 83 1007.9
20260509102306 57 0.0 0.0 0.00 0.02 0.02 84 1007.5
20260509101800 58 0.0 0.0 0.00 0.02 0.02 84 1007.8
20260509101256 58 0.0 0.0 0.00 0.02 0.02 84 1007.8
20260509100754 58 0.0 0.0 0.00 0.02 0.02 84 1007.8
20260509100252 58 0.0 0.0 0.00 0.02 0.02 83 1008.0
20260509095748 58 0.0 0.0 0.00 0.02 0.02 84 1008.0
20260509095245 58 0.0 0.0 0.00 0.02 0.02 84 1008.5
20260509094742 58 0.0 0.0 0.00 0.02 0.02 84 1008.4
20260509094239 58 0.0 0.0 0.00 0.02 0.02 85 1008.3
20260509093737 58 0.0 0.0 0.00 0.02 0.02 84 1008.4
20260509093234 58 0.0 0.0 0.00 0.02 0.02 84 1008.3
20260509092732 58 0.0 0.0 0.00 0.02 0.02 84 1008.2
20260509092230 59 0.0 0.0 0.02 0.02 0.02 84 1008.3
20260509091728 59 0.0 0.0 0.02 0.02 0.02 84 1008.2
20260509091223 59 0.0 0.0 0.02 0.02 0.02 81 1008.1
20260509090721 59 0.0 0.0 0.07 0.02 0.02 82 1008.5
20260509090218 59 0.0 0.0 0.07 0.01 0.01 80 1008.2
20260509085716 59 0.0 0.0 0.02 0.00 0.00 81 1008.0
20260509085213 59 0.0 0.0 0.00 0.00 0.00 81 1007.7
20260509084710 59 0.0 0.0 0.00 0.00 0.00 80 1007.9
20260509084206 59 0.0 0.0 0.00 0.00 0.00 81 1008.0
20260509083704 59 0.0 0.0 0.00 0.00 0.00 81 1008.1
20260509083201 59 0.0 0.0 0.00 0.00 0.00 82 1008.1
20260509082658 59 0.0 0.0 0.00 0.00 0.00 82 1008.3
20260509082154 59 0.0 0.0 0.00 0.00 0.00 82 1008.4
20260509081651 60 0.0 0.0 0.00 0.00 0.00 82 1008.6
20260509081148 60 0.0 0.0 0.00 0.00 0.00 82 1008.8
20260509080646 60 0.0 0.0 0.00 0.00 0.00 82 1008.9
20260509080144 60 0.0 0.0 0.00 0.00 0.00 82 1008.9
20260509075642 60 0.0 0.0 0.00 0.00 0.00 81 1009.2
20260509075140 60 0.0 0.0 0.00 0.00 0.00 80 1008.9
20260509074636 60 0.0 0.0 0.00 0.00 0.00 80 1009.1
20260509074132 60 0.0 0.0 0.00 0.00 0.00 80 1008.8
20260509073630 60 0.0 0.0 0.00 0.00 0.00 80 1008.9
20260509073126 60 0.0 0.0 0.00 0.00 0.00 78 1009.0
20260509072623 61 0.0 0.0 0.00 0.00 0.00 77 1009.1
20260509072120 61 0.0 0.0 0.00 0.00 0.00 77 1008.9
20260509071616 61 0.0 0.0 0.00 0.00 0.00 75 1009.0
20260509071114 62 0.0 0.0 0.00 0.00 0.00 72 1008.8
20260509070611 62 0.0 0.0 0.00 0.00 0.00 70 1008.8
20260509070107 63 0.0 0.0 0.00 0.00 0.00 68 1008.7
20260509065602 63 0.0 0.0 0.00 0.00 0.00 64 1008.7
20260509065058 64 0.0 0.0 0.00 0.00 0.00 62 1009.1
20260509064556 64 0.0 0.0 0.00 0.00 0.00 58 1008.9
20260509064054 64 0.0 0.0 0.00 0.00 0.00 56 1009.1
20260509063550 64 0.0 0.0 0.00 0.00 0.00 57 1009.1
20260509063047 64 0.0 0.0 0.00 0.00 0.00 56 1009.1
20260509062544 64 0.0 0.0 0.00 0.00 0.00 56 1009.0
20260509062042 64 0.0 0.0 0.00 0.00 0.00 55 1008.5
20260509061538 64 0.0 0.0 0.00 0.00 0.00 55 1008.5
20260509061036 64 0.0 0.0 0.00 0.00 0.00 55 1008.5
20260509060533 64 0.0 0.0 0.00 0.00 0.00 54 1008.4
20260509060029 65 0.0 0.0 0.00 0.00 0.00 54 1008.3
20260509055524 65 0.0 0.0 0.00 0.00 0.00 54 1008.6
20260509055021 65 0.0 0.0 0.00 0.00 0.00 53 1008.6
20260509054517 65 0.0 0.0 0.00 0.00 0.00 53 1008.7
20260509054016 65 0.0 0.0 0.00 0.00 0.00 53 1008.5
20260509053514 65 0.0 0.0 0.00 0.00 0.00 53 1009.0
20260509053010 65 0.0 0.0 0.00 0.00 0.00 53 1008.7
20260509052508 65 0.0 0.0 0.00 0.00 0.00 53 1008.7
20260509052006 65 0.0 0.0 0.00 0.00 0.00 52 1008.7
20260509051504 65 0.0 0.0 0.00 0.00 0.00 52 1008.8
20260509051000 65 0.0 0.0 0.00 0.00 0.00 52 1008.8
20260509050457 65 0.0 0.0 0.00 0.00 0.00 52 1008.9
20260509045953 65 0.0 0.0 0.00 0.00 0.00 52 1008.8
20260509045451 65 0.0 0.0 0.00 0.00 0.00 52 1008.7
20260509044948 65 0.0 0.0 0.00 0.00 0.00 52 1009.0
20260509044445 65 0.0 0.0 0.00 0.00 0.00 52 1009.0
20260509043942 65 0.0 0.0 0.00 0.00 0.00 52 1008.9
20260509043438 65 0.0 0.0 0.00 0.00 0.00 52 1008.9
20260509042933 65 0.0 0.0 0.00 0.00 0.00 52 1009.0
20260509042431 65 0.0 0.0 0.00 0.00 0.00 52 1009.0
20260509041927 65 0.0 0.0 0.00 0.00 0.00 52 1009.0
20260509041424 65 0.0 0.0 0.00 0.00 0.00 52 1008.9
20260509040922 65 0.0 0.0 0.00 0.00 0.00 52 1008.8
20260509040420 65 0.0 0.0 0.00 0.00 0.00 53 1009.0
20260509035916 65 0.0 0.0 0.00 0.00 0.00 53 1009.1
20260509035414 65 0.0 0.0 0.00 0.00 0.00 53 1009.1
20260509034910 65 0.0 0.0 0.00 0.00 0.00 53 1009.0
20260509034408 65 0.0 0.0 0.00 0.00 0.00 52 1009.1
20260509033905 65 0.0 0.0 0.00 0.00 0.00 52 1009.1
20260509033402 65 0.0 0.0 0.00 0.00 0.00 52 1009.2
20260509032858 65 0.0 0.0 0.00 0.00 0.00 52 1009.2
20260509032355 65 0.0 0.0 0.00 0.00 0.00 51 1009.2
20260509031853 66 0.0 0.0 0.00 0.00 0.00 51 1009.2
20260509031350 66 0.0 0.0 0.00 0.00 0.00 51 1009.3
20260509030848 66 0.0 0.0 0.00 0.00 0.00 51 1009.1
20260509030346 66 0.0 0.0 0.00 0.00 0.00 50 1009.1
20260509025843 66 0.0 0.0 0.00 0.00 0.00 50 1009.3
20260509025338 66 0.0 0.0 0.00 0.00 0.00 50 1009.2
20260509024833 66 0.0 0.0 0.00 0.00 0.00 50 1009.2
20260509024330 66 0.0 0.0 0.00 0.00 0.00 49 1009.3
20260509023827 67 0.0 0.0 0.00 0.00 0.00 49 1009.3
20260509023324 67 0.0 0.0 0.00 0.00 0.00 49 1009.3
20260509022821 67 0.0 0.0 0.00 0.00 0.00 48 1009.4
20260509022318 67 0.0 0.0 0.00 0.00 0.00 48 1009.5
20260509021815 67 0.0 0.0 0.00 0.00 0.00 48 1009.3
20260509021312 67 0.0 0.0 0.00 0.00 0.00 48 1009.3
20260509020809 67 0.0 0.0 0.00 0.00 0.00 48 1009.5
20260509020308 67 0.0 0.0 0.00 0.00 0.00 48 1009.5
20260509015805 68 0.0 0.0 0.00 0.00 0.00 48 1009.4
20260509015306 68 0.0 0.0 0.00 0.00 0.00 48 1009.3
20260509014759 68 0.0 0.0 0.00 0.00 0.00 48 1009.3
20260509014256 68 0.0 0.0 0.00 0.00 0.00 48 1009.4
20260509013753 68 0.0 0.0 0.00 0.00 0.00 47 1009.5
20260509013248 68 0.0 0.0 0.00 0.00 0.00 48 1009.1
20260509012745 68 0.0 0.0 0.00 0.00 0.00 47 1009.3
20260509012242 68 0.0 0.0 0.00 0.00 0.00 47 1009.2
20260509011739 68 0.0 0.0 0.00 0.00 0.00 47 1009.3
20260509011237 68 0.0 0.0 0.00 0.00 0.00 48 1009.3
20260509010734 68 0.0 0.0 0.00 0.00 0.00 48 1009.2
20260509010231 68 0.0 0.0 0.00 0.00 0.00 47 1009.2
20260509005729 68 0.0 0.0 0.00 0.00 0.00 47 1009.3
20260509005226 69 0.0 0.0 0.00 0.00 0.00 47 1009.3
20260509004725 69 0.0 0.0 0.00 0.00 0.00 48 1009.3
20260509004223 69 0.0 0.0 0.00 0.00 0.00 47 1009.5
20260509003721 69 0.0 0.0 0.00 0.00 0.00 47 1009.5
20260509003219 69 0.0 0.0 0.00 0.00 0.00 47 1009.5
20260509002715 69 0.0 0.0 0.00 0.00 0.00 46 1009.9
20260509002213 69 0.0 0.0 0.00 0.00 0.00 46 1009.5